User: anonymous   Login
Location: Unspecified
(0.0000°N, 0.0000°E)
Time: 16:30:19
(UTC+01:00)
Language:

Meteor PRIRODA - Orbit

View from above orbital plane
View from above orbital plane
View from above satellite
View from above satellite

Ground track
Ground track

The orbit data is extracted from the following two-line orbital elements,

1 12585U 81065A   15028.73402541  .00004155  00000-0  21743-3 0    89
2 12585 097.3371 017.0763 0015766 194.9196 217.5523 15.16267590830144
Epoch (UTC): 28 January 2015 17:36:59
Eccentricity: 0.0015766
inclination: 97.3371°
perigee height: 506 km
apogee height: 528 km
right ascension of ascending node: 17.0763°
argument of perigee: 194.9196°
revolutions per day: 15.16267590
mean anomaly at epoch: 217.5523°
orbit number at epoch: 83014

The dashed part of the orbit path shows where the satellite is in the earth's shadow,  

DLR